GW1546 Weather Reports


Display with metric or nautical units.
time (UTC)temp
F
wind
direction
speed
MPH
gust
MPH
rain 1hr
in
rain 24hr
in
rain mn
in
humidity
%
barometer
mb
20260505101527 49 110 1.0 2.0 0.00 0.00 0.00 99 985.1
20260505100942 49 40 0.0 1.0 0.00 0.00 0.00 99 985.1
20260505100313 49 286 0.0 1.0 0.00 0.00 0.00 99 985.1
20260505095740 49 263 0.0 1.0 0.00 0.00 0.00 99 985.1
20260505095146 49 59 0.0 2.0 0.00 0.00 0.00 99 984.7
20260505094528 49 42 1.0 2.0 0.00 0.00 0.00 99 984.7
20260505093910 49 122 1.0 1.0 0.00 0.00 0.00 99 984.7
20260505093331 49 117 1.0 2.0 0.00 0.00 0.00 99 984.7
20260505092734 49 92 0.0 1.0 0.00 0.00 0.00 99 984.4
20260505092112 49 47 1.0 1.0 0.00 0.00 0.00 99 984.4
20260505091543 49 109 1.0 1.0 0.00 0.00 0.00 99 984.4
20260505090932 49 23 0.0 2.0 0.00 0.00 0.00 99 984.4
20260505090330 49 231 0.0 2.0 0.00 0.00 0.00 98 984.7
20260505085725 49 88 1.0 2.0 0.00 0.00 0.00 99 984.4
20260505085123 49 28 1.0 1.0 0.00 0.00 0.00 99 984.4
20260505084548 49 18 0.0 1.0 0.00 0.00 0.00 99 984.0
20260505083930 49 36 1.0 2.0 0.00 0.00 0.00 99 984.4
20260505082713 50 98 1.0 2.0 0.00 0.00 0.00 99 984.4
20260505081509 49 118 0.0 1.0 0.00 0.00 0.00 99 984.4
20260505080952 50 331 0.0 1.0 0.00 0.00 0.00 99 984.0
20260505080308 50 208 0.0 2.0 0.00 0.00 0.00 98 984.0
20260505075729 50 81 0.0 1.0 0.00 0.00 0.00 98 984.0
20260505075111 50 180 1.0 1.0 0.00 0.00 0.00 98 984.0
20260505073939 50 21 0.0 2.0 0.00 0.00 0.00 98 984.0
20260505073351 50 61 1.0 2.0 0.00 0.00 0.00 98 984.0
20260505072150 50 99 0.0 0.0 0.00 0.00 0.00 98 984.0
20260505070926 50 107 2.0 2.0 0.00 0.00 0.00 98 984.0
20260505070310 50 72 0.0 2.0 0.00 0.00 0.00 98 984.0
20260505065740 50 97 0.0 1.0 0.00 0.00 0.00 98 984.0
20260505064531 50 104 0.0 1.0 0.00 0.00 0.00 98 984.0
20260505063912 50 95 1.0 1.0 0.00 0.00 0.00 98 984.0
20260505063352 50 144 0.0 1.0 0.00 0.00 0.00 98 984.0
20260505062752 50 73 1.0 3.0 0.00 0.00 0.00 99 984.0
20260505062120 50 84 0.0 1.0 0.00 0.00 0.00 99 984.0
20260505060932 50 81 0.0 0.0 0.00 0.00 0.00 98 984.0
20260505060347 50 114 0.0 0.0 0.00 0.00 0.00 98 984.0
20260505055730 51 206 0.0 0.0 0.00 0.00 0.00 97 984.0
20260505055120 51 83 0.0 1.0 0.00 0.00 0.00 98 983.7
20260505054545 51 83 0.0 0.0 0.00 0.00 0.00 97 983.7
20260505053930 51 252 1.0 1.0 0.00 0.00 0.00 97 983.7
20260505053309 52 101 0.0 1.0 0.00 0.00 0.00 97 984.0
20260505051537 52 93 0.0 1.0 0.00 0.00 0.00 97 983.7
20260505050326 52 228 0.0 0.0 0.00 0.00 0.00 97 983.4
20260505041526 53 51 0.0 0.0 0.00 0.00 0.00 96 983.0
20260505040919 53 107 1.0 1.0 0.00 0.00 0.00 96 983.4
20260505035138 53 175 0.0 0.0 0.00 0.00 0.00 95 983.0
20260505034556 54 255 0.0 1.0 0.00 0.00 0.00 94 982.7
20260505033913 54 329 0.0 0.0 0.00 0.00 0.00 94 983.0
20260505033320 54 233 0.0 1.0 0.00 0.00 0.00 94 983.0
20260505032719 54 168 0.0 1.0 0.00 0.00 0.00 94 983.0
20260505032128 54 188 1.0 2.0 0.00 0.00 0.00 93 983.0
20260505031514 55 183 1.0 1.0 0.00 0.00 0.00 93 982.7
20260505030941 54 93 0.0 1.0 0.00 0.00 0.00 94 982.3
20260505030344 55 261 0.0 1.0 0.00 0.00 0.00 93 982.7
20260505025743 55 30 1.0 2.0 0.00 0.00 0.00 94 983.0
20260505025129 55 212 0.0 1.0 0.00 0.00 0.00 93 982.7
20260505024538 55 205 0.0 0.0 0.00 0.00 0.00 93 983.0
20260505022123 56 215 0.0 0.0 0.00 0.00 0.00 92 982.7
20260505021512 56 214 0.0 1.0 0.00 0.00 0.00 91 982.7
20260505020926 56 147 1.0 1.0 0.00 0.00 0.00 92 982.7
20260505020317 57 193 1.0 1.0 0.00 0.00 0.00 91 983.0
20260505015154 57 207 0.0 0.0 0.00 0.00 0.00 90 982.7
20260505014530 57 207 0.0 0.0 0.00 0.00 0.00 89 982.7
20260505013918 58 217 0.0 2.0 0.00 0.00 0.00 88 982.7
20260505013318 58 206 0.0 0.0 0.00 0.00 0.00 88 982.7
20260505012711 58 201 0.0 0.0 0.00 0.00 0.00 88 982.7
20260505012147 59 201 0.0 0.0 0.00 0.00 0.00 87 982.3
20260505011536 59 201 0.0 1.0 0.00 0.00 0.00 87 982.3
20260505010914 59 202 0.0 1.0 0.00 0.00 0.00 86 982.3
20260505010331 60 209 1.0 2.0 0.00 0.00 0.00 85 982.3
20260505005751 60 213 0.0 1.0 0.00 0.00 0.00 85 982.3
20260505005121 60 195 1.0 1.0 0.00 0.00 0.00 84 982.7
20260505004534 61 222 0.0 1.0 0.00 0.00 0.00 83 982.3
20260505003929 62 194 0.0 1.0 0.00 0.00 0.00 82 982.3
20260505003354 62 192 1.0 1.0 0.00 0.00 0.00 81 982.3
20260505002111 64 228 1.0 1.0 0.00 0.00 0.00 79 982.3
20260505001513 64 195 0.0 1.0 0.00 0.00 0.00 76 982.3
20260505000916 65 105 0.0 1.0 0.00 0.00 0.00 73
20260505000318 66 205 1.0 1.0 0.00 0.00 0.00 73
20260504235715 66 189 2.0 2.0 0.00 0.00 0.00 68
20260504234528 66 189 0.0 2.0 0.00 0.00 0.00 72
20260504233933 67 203 1.0 2.0 0.00 0.00 0.00 70
20260504233341 69 51 2.0 3.0 0.00 0.00 0.00 61
20260504232715 69 152 1.0 1.0 0.00 0.00 0.00 68
20260504232153 69 100 1.0 2.0 0.00 0.00 0.00 64
20260504231519 70 171 1.0 1.0 0.00 0.00 0.00 63
20260504230952 71 121 0.0 1.0 0.00 0.00 0.00 55
20260504225715 74 186 0.0 4.0 0.00 0.00 0.00 49
20260504225147 74 141 1.0 3.0 0.00 0.00 0.00 51
20260504224511 76 131 2.0 2.0 0.00 0.00 0.00 51
20260504223935 76 228 0.0 1.0 0.00 0.00 0.00 44
20260504223316 78 32 0.0 1.0 0.00 0.00 0.00 48
20260504222753 77 163 1.0 6.0 0.00 0.00 0.00 42
20260504222112 78 289 1.0 3.0 0.00 0.00 0.00 44
20260504221522 77 148 2.0 3.0 0.00 0.00 0.00 48
20260504220927 77 222 1.0 12.0 0.00 0.00 0.00 43
20260504220316 77 316 8.0 9.0 0.00 0.00 0.00 43
20260504215123 78 75 2.0 2.0 0.00 0.00 0.00 46
20260504214552 78 339 2.0 2.0 0.00 0.00 0.00 43
20260504213951 78 298 3.0 4.0 0.00 0.00 0.00 44
20260504211528 78 252 1.0 4.0 0.00 0.00 0.00 42
20260504210950 77 316 5.0 8.0 0.00 0.00 0.00 43
20260504210330 78 322 5.0 8.0 0.00 0.00 0.00 44
20260504205734 79 275 1.0 2.0 0.00 0.00 0.00 45 982.3
20260504205140 78 37 0.0 3.0 0.00 0.00 0.00 44 982.3
20260504204542 77 79 2.0 6.0 0.00 0.00 0.00 44 982.3
20260504203931 78 276 0.0 1.0 0.00 0.00 0.00 43 982.3
20260504202734 76 25 2.0 3.0 0.00 0.00 0.00 47 982.7
20260504202114 75 180 1.0 4.0 0.00 0.00 0.00 47 982.7
20260504201541 75 135 1.0 1.0 0.00 0.00 0.00 49 983.0
20260504200320 75 202 0.0 2.0 0.00 0.00 0.00 49 983.4
20260504195752 74 162 1.0 2.0 0.00 0.00 0.00 52 983.4
20260504195125 73 14 0.0 1.0 0.00 0.00 0.00 51 983.4
20260504194552 72 57 1.0 2.0 0.00 0.00 0.00 54 983.7
20260504193936 71 270 2.0 3.0 0.00 0.00 0.00 57 984.0
20260504193337 68 266 1.0 2.0 0.00 0.00 0.00 71 984.0
20260504192722 67 292 0.0 0.0 0.00 0.00 0.00 73 984.0
20260504192139 68 342 2.0 3.0 0.00 0.00 0.00 67 984.0
20260504191533 68 5 2.0 4.0 0.00 0.00 0.00 55 984.0
20260504190949 68 68 3.0 4.0 0.00 0.00 0.00 56 984.0
20260504185733 71 3 3.0 3.0 0.00 0.00 0.00 50 983.4
20260504184535 74 156 2.0 4.0 0.00 0.00 0.00 47 983.4
20260504183943 74 107 1.0 4.0 0.00 0.00 0.00 48 983.7
20260504183329 73 35 2.0 3.0 0.00 0.00 0.00 49 983.7
20260504182741 73 287 3.0 6.0 0.00 0.00 0.00 46 983.7
20260504182142 73 30 1.0 3.0 0.00 0.00 0.00 49 984.0
20260504181512 72 350 2.0 6.0 0.00 0.00 0.00 48 984.0
20260504180923 73 300 5.0 11.0 0.00 0.00 0.00 45 984.0
20260504180320 74 61 2.0 3.0 0.00 0.00 0.00 45 984.0
20260504175748 75 44 1.0 2.0 0.00 0.00 0.00 48 984.0
20260504174534 72 220 3.0 4.0 0.00 0.00 0.00 48 984.4
20260504173931 71 314 2.0 4.0 0.00 0.00 0.00 50 984.4
20260504172713 71 151 3.0 3.0 0.00 0.00 0.00 52 984.4
20260504172134 71 131 3.0 3.0 0.00 0.00 0.00 54 984.7
20260504171554 70 80 0.0 6.0 0.00 0.00 0.00 55 985.1
20260504170919 70 127 1.0 3.0 0.00 0.00 0.00 57 985.1
20260504170335 68 116 5.0 8.0 0.00 0.00 0.00 55 985.4
20260504160347 66 137 0.0 3.0 0.00 0.00 0.00 60 986.4
20260504141236 58 50 1.0 2.0 0.00 0.00 0.00 74 986.4
20260504140653 56 96 1.0 2.0 0.00 0.00 0.00 78 986.7
20260504130633 48 50 2.0 8.0 0.00 0.00 0.00 82 987.4
20260504110627 41 157 2.0 3.0 0.00 0.00 0.00 93 987.4